Theta_e
302 295 293 298 303 303 302 299 299 300 303 300 301 300 304 307 303 303 304 304 306 312 319 323 325 329 331 333 333 333 331 330 329 328 327 328 327 330 331 331 332 333 334 331
297 294 301 303 301 300 301 299 297 299 299 298 302 301 305 306 305 306 308 308 305 306 314 319 323 325 327 330 332 333 333 333 331 330 330 330 330 332 331 331 330 330 330 329
295 298 299 298 297 295 297 297 294 295 293 294 293 294 298 302 302 304 305 308 311 307 307 314 319 322 325 326 329 331 333 334 333 332 332 331 333 333 331 332 332 331 331 330
297 299 295 296 295 298 292 297 294 290 291 291 292 289 297 300 300 301 301 303 303 304 305 309 314 318 323 326 328 330 332 333 333 334 332 330 328 327 330 330 331 332 331 330
294 295 294 293 295 297 295 296 294 293 291 291 293 288 295 295 294 298 302 303 305 306 304 304 308 313 318 322 326 328 329 331 333 333 333 331 330 331 333 333 333 334 333 331
295 298 299 297 297 297 294 294 294 292 292 285 292 290 292 296 297 300 301 303 304 304 304 304 306 308 311 314 321 325 326 328 331 332 333 332 331 331 331 331 331 332 331 330
289 293 293 298 293 295 294 291 284 282 282 284 288 288 292 298 297 297 298 300 302 304 305 304 303 301 303 306 309 317 322 324 328 331 331 332 332 332 331 331 332 331 329 326
285 283 288 292 295 291 291 292 285 280 280 285 283 285 293 298 300 300 299 301 300 299 301 302 303 303 303 304 306 307 312 319 325 328 330 331 332 332 332 332 332 332 329 328
289 286 290 293 292 296 290 287 292 284 278 282 286 289 294 296 296 297 297 298 299 301 301 301 301 301 302 303 304 306 307 311 318 323 328 329 329 329 330 331 332 330 329 324
292 283 288 289 294 292 294 296 286 287 281 280 285 285 289 291 294 297 298 299 300 300 300 301 302 302 303 303 304 306 307 308 314 319 323 324 326 326 327 328 327 326 322 316
293 290 284 289 289 288 289 289 289 290 287 283 282 287 297 295 297 296 298 297 298 299 300 301 302 303 303 304 305 306 306 306 307 309 316 318 318 323 324 323 322 320 316 313
291 288 283 285 289 291 293 290 290 286 283 285 284 286 294 295 295 294 296 297 298 298 299 300 301 302 302 303 305 306 306 305 305 306 307 309 315 312 313 313 312 309 308 306
290 287 281 282 287 288 287 289 292 291 287 284 283 286 298 298 298 299 296 298 299 298 300 300 300 300 302 303 304 306 306 305 304 303 305 306 307 310 309 305 305 304 301 299
295 287 286 282 285 288 285 287 288 289 285 285 285 288 293 295 295 297 297 296 297 298 299 300 300 300 301 302 303 304 303 303 302 301 302 303 304 306 306 301 300 299 298 295
293 286 286 286 288 288 288 287 287 286 288 285 288 288 292 295 296 297 299 297 296 296 298 299 299 300 300 300 301 302 303 301 300 300 299 298 299 300 298 296 295 293 295 293
291 287 288 283 286 286 285 288 288 288 289 289 290 289 296 298 297 297 297 298 297 297 299 299 298 299 299 299 300 300 301 299 298 298 296 292 293 292 292 291 289 290 289 288
290 286 284 283 286 287 283 286 288 289 290 291 286 291 296 295 295 296 297 298 298 299 299 298 298 299 299 299 300 299 299 298 296 296 292 290 290 289 289 289 288 287 287 288
289 286 287 280 283 277 287 294 292 290 291 292 292 293 295 296 298 299 300 298 297 298 298 298 299 300 300 300 299 299 298 295 294 293 291 289 289 287 287 287 286 286 286 286
292 289 283 282 282 286 288 287 289 287 288 293 292 294 295 296 294 295 297 297 298 299 300 300 301 300 300 299 298 296 294 293 292 290 290 288 288 286 286 286 285 285 286 286
288 292 287 281 280 277 286 293 292 292 284 295 295 294 294 292 289 294 297 296 297 297 297 298 299 299 298 297 295 293 292 291 291 290 289 289 288 287 286 286 285 286 286 285
283 285 283 284 283 286 289 290 294 283 288 292 293 295 295 290 295 294 295 294 294 294 294 296 297 296 296 293 292 291 291 290 291 289 288 287 287 287 287 286 285 285 284 284
283 283 283 285 281 279 290 289 288 293 294 291 292 292 293 294 292 293 292 293 292 292 292 292 293 292 291 291 290 290 290 290 288 287 286 286 286 286 285 285 284 285 284 283
283 288 285 286 286 290 290 294 294 293 293 291 294 294 293 292 291 292 292 291 290 289 288 287 288 288 288 288 290 289 289 287 286 286 285 285 285 285 285 285 284 284 284 284
285 286 287 287 288 289 289 290 291 292 291 291 292 293 293 292 291 289 289 288 287 286 286 285 286 286 286 286 286 287 286 286 286 286 285 285 285 284 284 285 284 284 284 283
288 286 284 285 285 289 290 291 292 290 290 289 289 290 291 291 288 288 286 285 286 285 283 284 285 285 285 285 286 285 285 286 286 285 284 284 285 284 283 284 284 284 285 285
286 286 286 287 290 291 292 292 290 289 289 289 288 287 286 288 287 285 283 282 282 283 283 283 282 283 283 283 283 284 285 286 285 284 284 284 284 284 283 282 281 282 283 284
Wind_Speed
8 10 18 20 19 7 8 8 13 5 4 4 12 18 19 15 13 16 15 12 13 16 14 15 17 17 17 17 17 18 17 17 12 10 10 9 9 9 8 7 10 11 10 10
9 20 17 14 12 10 9 9 6 3 3 3 13 21 22 18 17 19 21 19 15 15 12 14 16 17 18 18 19 20 19 18 15 12 11 8 10 9 9 8 9 10 10 9
17 10 14 16 15 12 12 11 4 3 1 2 8 19 24 17 19 19 20 19 18 17 16 15 16 18 18 20 20 19 19 19 17 16 11 9 6 5 8 9 9 10 11 11
6 10 17 17 19 18 13 7 8 5 3 9 0 11 14 13 13 14 18 19 20 19 15 17 18 18 19 18 17 19 19 19 18 19 14 18 13 11 10 10 9 9 12 11
10 14 20 21 21 19 7 13 11 5 4 7 10 9 7 5 10 15 18 18 21 18 17 17 18 18 20 14 17 18 19 19 19 18 19 15 16 11 10 10 12 12 10 10
6 4 14 15 12 16 19 12 8 5 5 10 13 11 12 12 15 12 10 14 18 19 18 17 14 12 14 13 14 15 18 20 19 20 20 20 19 15 12 11 10 7 8 8
6 7 3 9 14 6 12 16 4 4 5 9 2 12 18 8 8 8 9 10 11 13 16 14 13 12 14 15 17 16 18 19 18 19 20 20 19 17 18 15 11 11 9 6
12 8 11 5 10 11 10 10 6 7 7 2 1 13 7 8 10 11 12 15 12 11 11 13 14 13 14 13 13 16 18 19 18 20 20 18 19 12 12 14 11 9 10 11
15 9 6 8 7 16 6 9 3 4 3 2 7 10 14 13 15 12 11 8 14 13 10 9 9 10 12 12 14 15 15 16 17 19 16 16 15 17 14 15 12 9 9 8
10 7 3 4 7 2 14 16 6 5 7 8 9 9 15 2 6 9 14 16 10 8 8 9 11 12 10 11 11 13 14 16 15 16 14 13 14 15 13 11 12 12 10 10
10 3 5 11 14 17 11 11 5 7 6 6 7 9 6 14 12 8 7 5 9 8 7 9 9 8 8 8 10 12 12 13 13 13 12 9 6 10 11 10 10 10 11 12
4 6 7 20 2 5 16 13 17 8 9 5 4 12 8 7 5 5 8 9 7 8 9 8 9 8 8 8 9 10 10 9 7 8 11 12 10 5 7 7 8 9 10 10
11 6 8 6 4 3 15 12 20 10 3 9 7 13 10 16 15 12 12 12 13 10 9 7 7 8 8 7 7 8 8 8 8 8 9 10 11 10 8 7 8 9 11 11
12 3 9 13 7 11 14 17 14 18 8 18 13 23 25 20 18 10 8 6 8 8 9 10 7 8 9 8 8 7 7 7 7 8 8 9 11 11 10 9 9 11 11 13
11 11 4 1 6 7 8 19 20 23 29 19 25 25 35 30 16 14 14 11 10 11 13 12 9 9 10 10 10 9 10 9 8 9 9 8 6 9 11 10 10 9 10 11
5 3 9 4 4 4 2 21 22 27 28 25 28 22 36 19 10 13 13 13 12 16 15 8 10 11 13 14 13 11 11 10 8 8 6 6 6 6 9 10 10 11 10 10
15 8 5 6 7 4 12 23 22 20 26 22 27 36 19 21 12 14 14 16 18 20 14 9 12 13 13 15 13 13 11 9 9 9 7 7 8 8 8 10 11 11 12 11
14 9 3 5 7 14 6 11 20 23 19 22 24 24 14 17 17 16 17 16 14 14 14 13 11 10 10 11 13 12 11 11 10 9 9 8 8 10 9 9 10 10 10 11
7 8 5 6 11 14 21 6 8 11 24 19 22 21 20 14 8 19 13 14 17 17 14 9 7 7 8 12 12 11 11 11 11 11 10 9 9 10 11 11 11 10 10 9
3 12 8 5 11 14 5 14 10 8 25 15 21 23 22 9 11 19 5 7 13 9 6 8 6 5 8 9 10 12 13 13 14 13 12 11 10 11 11 11 11 8 9 9
7 6 18 11 10 9 3 3 15 12 5 5 8 16 13 10 13 1 2 3 3 3 7 7 4 4 5 7 10 12 11 15 11 10 11 11 11 11 11 11 7 9 9 9
13 12 10 9 10 22 8 10 23 10 3 5 4 5 8 10 2 2 3 4 5 6 6 6 4 2 2 6 8 10 11 7 9 10 11 11 11 9 9 12 8 9 10 10
8 9 10 16 12 2 10 11 4 2 5 4 3 4 4 3 3 0 1 2 4 6 5 4 3 1 1 1 4 7 5 9 10 11 11 11 11 10 10 12 12 10 10 9
5 0 4 5 6 6 11 5 4 5 4 4 2 4 4 3 3 2 2 2 2 3 5 5 3 1 1 2 1 2 7 8 9 9 10 11 11 9 9 7 8 9 10 9
4 13 8 4 0 1 6 12 7 5 5 6 4 2 3 4 3 3 3 3 4 4 3 3 2 1 1 2 3 4 6 7 8 8 8 9 7 9 8 6 7 6 6 9
8 8 12 13 12 6 7 12 10 9 6 5 7 4 4 4 5 4 5 4 4 4 4 4 4 4 3 1 1 3 4 6 8 8 7 7 7 7 7 7 6 3 5 8
Wind_Direction
176 184 200 188 206 233 196 209 218 148 168 235 244 261 268 262 248 256 252 243 244 238 225 215 211 212 213 208 204 201 197 199 193 199 196 207 210 209 210 208 207 205 209 197
159 212 195 191 179 179 170 186 194 197 151 218 272 267 268 261 251 247 254 248 239 240 231 219 212 209 213 213 210 207 201 201 197 193 196 203 210 215 211 200 199 201 199 192
181 191 163 174 185 184 205 210 162 260 101 200 291 271 264 252 241 240 240 250 253 233 221 225 217 216 210 218 214 214 208 204 199 201 196 196 201 210 211 210 206 208 206 200
213 145 169 184 194 196 201 188 162 141 215 265 5 283 273 271 266 248 244 238 235 234 227 222 206 212 217 219 213 216 211 211 206 200 199 198 202 199 205 205 203 199 203 208
171 164 174 184 188 184 191 169 189 189 265 309 225 270 267 263 270 259 252 241 240 234 228 223 221 212 209 204 214 216 212 210 207 205 204 202 208 206 207 212 210 203 197 207
150 212 181 192 166 176 139 122 63 59 233 254 246 231 259 254 256 259 262 258 241 234 233 235 228 216 216 193 203 216 216 214 208 207 209 209 209 207 205 201 204 199 194 191
138 169 120 161 139 151 155 144 127 179 195 246 338 217 250 270 252 258 273 277 255 253 252 246 231 213 217 208 195 203 214 218 208 208 210 210 213 209 212 207 206 200 191 184
164 195 177 172 180 162 163 167 166 206 205 247 128 236 251 229 266 263 275 260 277 266 248 236 235 228 225 214 214 203 203 216 210 211 212 210 210 212 210 211 205 206 195 191
183 175 151 181 147 143 142 202 132 91 45 244 214 259 276 233 251 256 255 263 260 259 269 269 263 249 248 235 220 213 210 214 211 213 212 210 208 211 208 209 206 201 190 167
165 124 230 166 128 93 180 145 163 202 209 238 232 265 252 199 215 252 254 255 262 293 274 260 258 250 247 242 230 218 214 216 207 211 214 212 211 211 208 202 196 189 172 149
157 106 133 163 206 174 152 179 183 167 217 230 264 247 242 231 239 250 271 276 279 280 294 299 289 276 258 241 230 214 211 205 204 192 204 207 203 195 197 196 184 170 164 156
171 115 146 187 52 252 202 193 180 188 192 249 301 270 160 214 220 222 252 284 287 290 300 291 281 263 237 232 225 222 205 199 204 199 177 192 200 172 169 170 158 151 152 150
172 137 115 150 228 176 219 206 207 220 74 199 199 255 199 234 262 260 256 278 283 307 301 284 275 259 243 225 221 223 218 210 184 183 192 181 185 188 170 148 149 150 146 142
150 140 192 188 194 152 199 205 208 212 225 232 224 255 262 256 255 267 284 265 281 283 287 284 267 250 234 226 214 213 224 217 190 179 191 200 184 178 173 152 153 149 152 142
170 203 175 113 128 154 190 193 193 202 222 218 237 230 259 254 266 266 276 280 275 266 265 262 260 245 232 218 215 207 207 202 198 194 182 179 174 158 148 142 142 135 141 140
195 216 175 153 109 82 212 208 201 211 225 232 247 253 244 280 271 261 261 276 280 280 274 255 239 234 226 219 214 209 204 196 190 193 185 145 143 145 142 138 139 129 127 128
180 147 142 213 130 69 269 220 206 211 221 224 233 242 260 273 266 248 255 254 257 260 272 250 242 232 217 216 205 205 196 181 190 183 168 160 151 148 146 140 136 139 141 141
179 142 113 121 129 217 226 173 199 212 227 227 243 255 255 252 259 258 248 253 255 268 259 247 239 236 214 211 203 192 182 185 184 178 164 161 159 150 144 138 143 143 147 151
163 157 138 172 212 285 265 159 159 180 246 221 236 249 251 249 281 263 246 244 250 257 259 253 234 223 197 203 200 177 173 172 179 181 172 168 163 155 153 155 154 150 146 146
86 186 193 155 213 228 56 213 147 138 266 200 222 235 239 178 245 264 287 213 246 281 287 278 242 209 193 192 174 180 185 183 185 180 173 169 162 162 163 160 154 150 152 142
146 169 206 204 229 265 211 128 144 197 233 227 206 228 222 200 226 24 11 57 2 346 327 325 286 225 199 159 171 197 192 198 185 166 157 161 162 166 162 153 147 146 143 138
160 171 198 200 234 260 159 139 182 215 204 184 157 173 201 224 259 270 327 323 341 338 346 357 334 285 177 169 180 196 206 168 149 156 161 163 160 155 150 147 143 149 147 145
188 191 175 190 209 80 190 189 197 155 173 202 186 159 176 177 195 330 2 356 337 339 341 352 347 324 324 204 202 197 188 156 159 160 165 163 157 156 159 156 158 156 160 163
218 152 208 128 203 201 187 196 220 185 160 132 160 155 161 158 114 104 12 19 359 360 355 347 13 35 226 198 173 166 156 159 159 170 165 158 161 161 162 165 168 167 170 167
167 145 169 255 96 35 251 216 193 159 134 131 102 92 111 116 102 103 86 30 16 14 4 351 10 26 298 197 170 148 156 158 160 156 154 160 162 166 162 169 174 179 188 181
189 164 184 219 175 184 203 185 160 161 164 154 133 116 65 87 100 80 60 29 10 13 357 24 16 0 10 15 95 123 146 162 157 157 161 167 161 167 169 165 153 148 170 183